Starlink 31033

operational
NORAD ID: 58723 Int'l Des: 2024-002 Owner: SPXS Country: US Constellation: starlink
LEOCIRCULAR

Über Starlink 31033

Beschreibung wird geladen...

Live-Position

3D-Globus wird geladen...

Nächste Überflüge

Höhenverlauf

Altitude vs Time

uPlot chart will show altitude changes over time

Zweizeiliger Elementsatz

1 58723U 24002U 25352.94841127 .00000835 00000-0 40312-4 0 9996
2 58723 53.1608 244.9536 0001263 96.2795 263.8350 15.30194002109656
Epoch: 18. Dez. 2025 • Age: 4 hours

Aktueller Status

Höhe 482.8 km
Geschwindigkeit 7.62 km/s
Subsatellitenpunkt -24.72°S, 45.98°W
Startdatum 3. Jan. 2024
Alter 1.9 years
Typ internet

Technische Details

Klassifizierung Payload
Masse 730.00 kg
Trockenmasse 700.00 kg
Gesamtmasse 730.00 kg
Länge 0.30 m
Durchmesser 4.10 m
Spannweite 29.00 m
Form Box + pan
Hersteller SPXS
Bus-Typ Starlink V2M
Phasenstatus In Orbit
Besitzer/Staat SPXS/US

Große Konstellationen

Loading constellations...